This is the latest recevied weather packets stored in our database for station/object SP1BMW-13. If no packets are shown the sender has not sent any weather packets the latest 10 day(s).
| Time | Temp. | Humidity | Pressure | Rain* | Wind** | Luminosity | Snow |
|---|---|---|---|---|---|---|---|
| 1777472699 | 14.44° C | 29% | 1029.1 hPa | 0 mm | 1.34 m/s, 5° | 456 W/m² | - |
| 1777472639 | 14.44° C | 29% | 1028.8 hPa | 0 mm | 1.79 m/s, 325° | 455 W/m² | - |
| 1777472579 | 14.44° C | 29% | 1028.9 hPa | 0 mm | 0.89 m/s, 325° | 459 W/m² | - |
| 1777472519 | 14.44° C | 30% | 1029 hPa | 0 mm | 1.79 m/s, 37° | 461 W/m² | - |
| 1777472459 | 14.44° C | 30% | 1029 hPa | 0 mm | 1.34 m/s, 1° | 462 W/m² | - |
| 1777472399 | 14.44° C | 29% | 1029 hPa | 0 mm | 1.79 m/s, 48° | 466 W/m² | - |
| 1777472339 | 14.44° C | 30% | 1029.1 hPa | 0 mm | 1.34 m/s, 281° | 467 W/m² | - |
| 1777472280 | 14.44° C | 30% | 1028.9 hPa | 0 mm | 1.79 m/s, 31° | 469 W/m² | - |
| 1777472219 | 14.44° C | 30% | 1029 hPa | 0 mm | 0.45 m/s, 285° | 474 W/m² | - |
| 1777472160 | 14.44° C | 29% | 1028.8 hPa | 0 mm | 0.89 m/s, 267° | 476 W/m² | - |
| 1777472099 | 14.44° C | 29% | 1028.9 hPa | 0 mm | 2.68 m/s, 297° | 481 W/m² | - |
| 1777472039 | 14.44° C | 29% | 1029 hPa | 0 mm | 3.13 m/s, 302° | 482 W/m² | - |
| 1777471979 | 14.44° C | 29% | 1029 hPa | 0 mm | 1.79 m/s, 313° | 485 W/m² | - |
| 1777471919 | 14.44° C | 30% | 1029 hPa | 0 mm | 0.89 m/s, 289° | 487 W/m² | - |
| 1777471859 | 14.44° C | 30% | 1029 hPa | 0 mm | 2.68 m/s, 308° | 486 W/m² | - |
| 1777471799 | 14.44° C | 30% | 1028.9 hPa | 0 mm | 1.79 m/s, 328° | 486 W/m² | - |
| 1777471739 | 14.44° C | 29% | 1028.9 hPa | 0 mm | 0.89 m/s, 257° | 490 W/m² | - |
| 1777471679 | 14.44° C | 28% | 1028.9 hPa | 0 mm | 0.45 m/s, 272° | 493 W/m² | - |
| 1777471619 | 14.44° C | 27% | 1029 hPa | 0 mm | 1.34 m/s, 59° | 496 W/m² | - |
| 1777471559 | 14.44° C | 30% | 1028.9 hPa | 0 mm | 0.89 m/s, 51° | 500 W/m² | - |
| 1777471499 | 14.44° C | 29% | 1028.8 hPa | 0 mm | 0.45 m/s, 138° | 505 W/m² | - |
| 1777471439 | 14.44° C | 27% | 1029.1 hPa | 0 mm | 0.89 m/s, 140° | 504 W/m² | - |
| 1777471379 | 14.44° C | 29% | 1028.9 hPa | 0 mm | 0.45 m/s, 62° | 503 W/m² | - |
| 1777471319 | 13.89° C | 28% | 1029 hPa | 0 mm | 0 m/s | 504 W/m² | - |
| 1777471259 | 13.89° C | 29% | 1029.1 hPa | 0 mm | 1.79 m/s, 51° | 505 W/m² | - |
* Rain latest hour (hover to see other rain measurements)
** Current wind speed in m/s (hover to see current wind gust speed)